When you browse on this site, cookies collect data to enhance your experience and personalize the content and advertising you see.
Visit our Privacy Policy to learn more. By continuing to use the site, you agree to this use of cookies and data.
  • In Schweiz
  • Länderverzeichnis
  • Für 7 Tage
  • Wassertemperatur
  • Satellitenkarten
  • Wetterkarte
  • Widgets
  • user-avatar
    Anmelden

    Stündliche Wetter Ischgl

    Heute, 24 Mai, Freitag

    Zeit Temperatur Niederschläge Wind Luftdruck Luftfeuchtigkeit
    00:00 -2°C° 0 mm 0 m/S 571 mmHg 94%
    01:00 0°C° 0 mm 1 m/S 571 mmHg 87%
    02:00 -1°C° 0 mm 1 m/S 571 mmHg 86%
    03:00 -1°C° 0 mm 1 m/S 571 mmHg 85%
    04:00 -1°C° 0 mm 1 m/S 571 mmHg 85%
    05:00 0°C° 0 mm 1 m/S 571 mmHg 84%
    06:00 +2°C° 0 mm 1 m/S 572 mmHg 83%
    07:00 +4°C° 0 mm 1 m/S 573 mmHg 82%
    08:00 +5°C° 0 mm 1 m/S 573 mmHg 77%
    09:00 +6°C° 0 mm 1 m/S 574 mmHg 73%
    10:00 +7°C° 0 mm 1 m/S 574 mmHg 68%
    11:00 +8°C° 0 mm 1 m/S 574 mmHg 66%
    12:00 +9°C° 0 mm 1 m/S 574 mmHg 63%
    13:00 +9°C° 0 mm 1 m/S 575 mmHg 61%
    14:00 +9°C° 0 mm 1 m/S 574 mmHg 62%
    15:00 +8°C° 0 mm 2 m/S 574 mmHg 64%
    16:00 +8°C° 0 mm 2 m/S 574 mmHg 65%
    17:00 +7°C° 0.2 mm 2 m/S 573 mmHg 72%
    18:00 +6°C° 0.2 mm 1 m/S 573 mmHg 78%
    19:00 +5°C° 0.2 mm 1 m/S 572 mmHg 85%
    20:00 +4°C° 0.1 mm 1 m/S 572 mmHg 88%
    21:00 +3°C° 0.1 mm 1 m/S 571 mmHg 91%
    22:00 +1°C° 0.1 mm 1 m/S 571 mmHg 93%
    23:00 +1°C° 0 mm 1 m/S 570 mmHg 93%

    Morgen, 25 Mai, Samstag

    Zeit Temperatur Niederschläge Wind Luftdruck Luftfeuchtigkeit
    00:00 0°C° 0 mm 0 m/S 570 mmHg 92%
    01:00 -1°C° 0 mm 0 m/S 570 mmHg 92%
    02:00 -1°C° 0 mm 0 m/S 570 mmHg 91%
    03:00 -1°C° 0 mm 0 m/S 570 mmHg 91%
    04:00 -1°C° 0 mm 0 m/S 570 mmHg 90%
    05:00 +1°C° 0 mm 0 m/S 571 mmHg 88%
    06:00 +2°C° 0 mm 0 m/S 572 mmHg 86%
    07:00 +4°C° 0 mm 0 m/S 572 mmHg 84%
    08:00 +5°C° 0.1 mm 0 m/S 573 mmHg 80%
    09:00 +7°C° 0.1 mm 1 m/S 574 mmHg 77%
    10:00 +8°C° 0.1 mm 1 m/S 574 mmHg 73%
    11:00 +8°C° 0.6 mm 1 m/S 574 mmHg 75%
    12:00 +8°C° 0.6 mm 1 m/S 574 mmHg 76%
    13:00 +7°C° 0.6 mm 1 m/S 574 mmHg 78%
    14:00 +7°C° 1.4 mm 1 m/S 573 mmHg 82%
    15:00 +6°C° 1.4 mm 1 m/S 573 mmHg 87%
    16:00 +5°C° 1.4 mm 1 m/S 573 mmHg 91%
    17:00 +5°C° 1.6 mm 1 m/S 572 mmHg 93%
    18:00 +4°C° 1.6 mm 1 m/S 572 mmHg 94%
    19:00 +4°C° 1.6 mm 1 m/S 572 mmHg 96%
    20:00 +3°C° 1.2 mm 1 m/S 572 mmHg 96%
    21:00 +3°C° 1.2 mm 1 m/S 572 mmHg 97%
    22:00 +3°C° 1.2 mm 1 m/S 572 mmHg 98%
    23:00 +3°C° 0.9 mm 1 m/S 572 mmHg 98%

    übermorgen, 26 Mai, Sonntag

    Zeit Temperatur Niederschläge Wind Luftdruck Luftfeuchtigkeit
    00:00 +2°C° 0.9 mm 1 m/S 572 mmHg 98%
    01:00 +2°C° 0.9 mm 1 m/S 572 mmHg 98%
    02:00 +2°C° 0.5 mm 1 m/S 572 mmHg 97%
    03:00 +1°C° 0.5 mm 0 m/S 572 mmHg 97%
    04:00 +1°C° 0.5 mm 0 m/S 572 mmHg 97%
    05:00 +1°C° 0.1 mm 0 m/S 572 mmHg 95%
    06:00 +2°C° 0.1 mm 0 m/S 572 mmHg 94%
    07:00 +3°C° 0.1 mm 1 m/S 573 mmHg 92%
    08:00 +4°C° 0 mm 1 m/S 573 mmHg 88%
    09:00 +6°C° 0 mm 1 m/S 574 mmHg 83%
    10:00 +7°C° 0 mm 1 m/S 574 mmHg 79%
    11:00 +7°C° 0.1 mm 1 m/S 574 mmHg 79%
    12:00 +7°C° 0.1 mm 1 m/S 574 mmHg 80%
    13:00 +6°C° 0.1 mm 2 m/S 574 mmHg 80%
    14:00 +6°C° 0.1 mm 2 m/S 574 mmHg 79%
    15:00 +7°C° 0.1 mm 2 m/S 574 mmHg 79%
    16:00 +7°C° 0.1 mm 2 m/S 574 mmHg 79%
    17:00 +6°C° 0.2 mm 2 m/S 574 mmHg 83%
    18:00 +6°C° 0.2 mm 2 m/S 574 mmHg 87%
    19:00 +6°C° 0.2 mm 1 m/S 573 mmHg 91%
    20:00 +6°C° 0.3 mm 1 m/S 573 mmHg 93%
    21:00 +5°C° 0.3 mm 1 m/S 573 mmHg 95%
    22:00 +4°C° 0.3 mm 1 m/S 573 mmHg 97%
    23:00 +4°C° 0.2 mm 1 m/S 573 mmHg 98%

    27 Mai, Montag

    Zeit Temperatur Niederschläge Wind Luftdruck Luftfeuchtigkeit
    00:00 +4°C° 0.2 mm 1 m/S 572 mmHg 98%
    01:00 +3°C° 0.2 mm 1 m/S 572 mmHg 98%
    02:00 +3°C° 0.2 mm 1 m/S 572 mmHg 98%
    03:00 +3°C° 0.2 mm 1 m/S 572 mmHg 98%
    04:00 +3°C° 0.2 mm 1 m/S 572 mmHg 97%
    05:00 +4°C° 0.1 mm 1 m/S 572 mmHg 96%
    06:00 +4°C° 0.1 mm 1 m/S 572 mmHg 95%
    07:00 +5°C° 0.1 mm 1 m/S 572 mmHg 93%
    08:00 +6°C° 0.1 mm 1 m/S 572 mmHg 90%
    09:00 +5°C° 0.1 mm 2 m/S 573 mmHg 86%
    10:00 +6°C° 0.1 mm 2 m/S 573 mmHg 83%
    11:00 +6°C° 0.2 mm 2 m/S 573 mmHg 83%
    12:00 +7°C° 0.2 mm 2 m/S 573 mmHg 83%
    13:00 +7°C° 0.2 mm 2 m/S 573 mmHg 83%
    14:00 +7°C° 0.4 mm 2 m/S 572 mmHg 85%
    15:00 +6°C° 0.4 mm 2 m/S 572 mmHg 87%
    16:00 +6°C° 0.4 mm 2 m/S 571 mmHg 89%
    17:00 +6°C° 0.5 mm 2 m/S 571 mmHg 91%
    18:00 +5°C° 0.5 mm 2 m/S 571 mmHg 93%
    19:00 +5°C° 0.5 mm 2 m/S 571 mmHg 94%
    20:00 +4°C° 0.7 mm 2 m/S 571 mmHg 96%
    21:00 +4°C° 0.7 mm 2 m/S 570 mmHg 97%
    22:00 +4°C° 0.7 mm 2 m/S 570 mmHg 98%
    23:00 +5°C° 0.5 mm 1 m/S 570 mmHg 98%

    28 Mai, Dienstag

    Zeit Temperatur Niederschläge Wind Luftdruck Luftfeuchtigkeit
    00:00 +5°C° 0.5 mm 1 m/S 570 mmHg 98%
    01:00 +4°C° 0.5 mm 1 m/S 569 mmHg 98%
    02:00 +4°C° 0.7 mm 1 m/S 569 mmHg 98%
    03:00 +4°C° 0.7 mm 1 m/S 568 mmHg 98%
    04:00 +4°C° 0.7 mm 1 m/S 568 mmHg 98%
    05:00 +4°C° 0.9 mm 1 m/S 568 mmHg 97%
    06:00 +4°C° 0.9 mm 1 m/S 568 mmHg 97%
    07:00 +4°C° 0.9 mm 1 m/S 568 mmHg 97%
    08:00 +4°C° 1.5 mm 1 m/S 568 mmHg 96%
    09:00 +5°C° 1.5 mm 1 m/S 568 mmHg 94%
    10:00 +5°C° 1.5 mm 1 m/S 568 mmHg 93%
    11:00 +5°C° 0.9 mm 1 m/S 568 mmHg 93%
    12:00 +4°C° 0.9 mm 2 m/S 567 mmHg 93%
    13:00 +4°C° 0.9 mm 2 m/S 567 mmHg 93%
    14:00 +4°C° 1.2 mm 2 m/S 567 mmHg 94%
    15:00 +3°C° 1.2 mm 2 m/S 567 mmHg 95%
    16:00 +3°C° 1.2 mm 2 m/S 567 mmHg 96%
    17:00 +2°C° 1.7 mm 2 m/S 567 mmHg 96%
    18:00 +2°C° 1.7 mm 2 m/S 567 mmHg 97%
    19:00 +1°C° 1.7 mm 2 m/S 566 mmHg 98%
    20:00 +1°C° 2 mm 2 m/S 566 mmHg 98%
    21:00 +1°C° 2 mm 2 m/S 566 mmHg 98%
    22:00 -1°C° 2 mm 2 m/S 566 mmHg 98%
    23:00 -1°C° 2.6 mm 2 m/S 566 mmHg 98%

    29 Mai, Mittwoch

    Zeit Temperatur Niederschläge Wind Luftdruck Luftfeuchtigkeit
    00:00 -1°C° 2.6 mm 2 m/S 566 mmHg 97%
    01:00 -2°C° 2.6 mm 2 m/S 566 mmHg 97%
    02:00 -2°C° 1.9 mm 2 m/S 566 mmHg 97%
    03:00 -2°C° 1.9 mm 2 m/S 566 mmHg 97%
    04:00 -3°C° 1.9 mm 2 m/S 566 mmHg 97%
    05:00 -3°C° 2.8 mm 2 m/S 566 mmHg 97%
    06:00 -3°C° 2.8 mm 2 m/S 566 mmHg 97%
    07:00 -3°C° 2.8 mm 2 m/S 566 mmHg 97%
    08:00 -3°C° 2.1 mm 2 m/S 567 mmHg 98%
    09:00 -3°C° 2.1 mm 2 m/S 567 mmHg 98%
    10:00 -4°C° 2.1 mm 3 m/S 568 mmHg 98%
    11:00 -2°C° 1.3 mm 2 m/S 568 mmHg 99%
    12:00 -2°C° 1.3 mm 2 m/S 568 mmHg 99%
    13:00 -2°C° 1.3 mm 2 m/S 569 mmHg 99%
    14:00 -2°C° 0.5 mm 2 m/S 569 mmHg 99%
    15:00 -2°C° 0.5 mm 3 m/S 569 mmHg 99%
    16:00 -2°C° 0.5 mm 3 m/S 569 mmHg 99%
    17:00 -2°C° 0.4 mm 3 m/S 569 mmHg 99%
    18:00 -2°C° 0.4 mm 3 m/S 570 mmHg 98%
    19:00 -2°C° 0.4 mm 2 m/S 570 mmHg 97%
    20:00 -3°C° 0.4 mm 2 m/S 570 mmHg 97%
    21:00 -3°C° 0.4 mm 2 m/S 571 mmHg 97%
    22:00 -3°C° 0.4 mm 2 m/S 571 mmHg 97%
    23:00 -4°C° 0.7 mm 2 m/S 571 mmHg 97%
    Mehr zeigen